Home   Weather   Leiden   Past weeks

Flag for Netherlands Past Weather in Leiden, Netherlands — Yesterday and Last 2 Weeks

Now
68 °F

Overcast.


Feels Like: 68 °F
Forecast: 59 / 65 °F
Wind: 14 mph from Southwest

Location: Rotterdam Zestienhoven Airport

Current Time: Sep 25, 2016 at 4:06:25 PM

Latest Report: Sep 25, 2016 at 3:25 PM


Visibility: N/A

Pressure: 29.98 "Hg

Humidity: 69%

Dew Point: 57 °F

Location of LeidenLocation

Past Weather in Leiden — Graph

°F

Leiden Temperature Yesterday

Maximum temperature yesterday: 75 °F (at 2:25 PM)
Minimum temperature yesterday: 50 °F (at 1:25 AM)
Average temperature yesterday: 64 °F

High & Low Weather Summary for the Past Weeks

 TemperatureHumidityPressure
High90 °F (Sep 13, 3:25 PM)100% (Sep 11, 5:55 AM)30.27 "Hg (Sep 11, 5:55 AM)
Low48 °F (Sep 22, 6:25 AM)36% (Sep 13, 3:25 PM)29.77 "Hg (Sep 15, 3:25 PM)
Average65 °F76%30.01 "Hg
* Reported Sep 10 2:25 PM — Sep 25 2:55 PM, Leiden, Weather by CustomWeather, © 2016

Note: Actual official high and low records may vary slightly from our data, if they occured in-between our weather recording intervals... More about our weather records

Advertising

Leiden Weather History for the Previous 24 Hours

Scroll right to see more
 ConditionsComfort  
Time TempWeatherWind HumidityBarometerVisibility
2:55 PM
Sun, Sep 25
68 °FOvercast.10 mph69%29.98 "HgN/A
2:25 PM72 °FPartly sunny.13 mph65%29.95 "HgN/A
1:55 PM72 °FClear.14 mph61%29.95 "HgN/A
1:25 PM72 °FClear.13 mph57%29.95 "HgN/A
12:55 PM72 °FMild.12 mph57%29.95 "HgN/A
12:25 PM72 °FClear.15 mph57%29.95 "HgN/A
11:55 AM70 °FClear.14 mph57%29.95 "HgN/A
11:25 AM68 °FMild.13 mph60%29.95 "HgN/A
10:55 AM66 °FClear.14 mph64%29.92 "HgN/A
10:25 AM64 °FMild.14 mph68%29.95 "HgN/A
9:55 AM63 °FClear.13 mph68%29.95 "HgN/A
9:25 AM61 °FCool.12 mph72%29.95 "HgN/A
8:55 AM59 °FCool.13 mph72%29.95 "HgN/A
8:25 AM59 °FCool.13 mph72%29.95 "HgN/A
7:55 AM59 °FCool.13 mph72%29.95 "HgN/A
7:25 AM57 °FCool.12 mph77%29.95 "HgN/A
6:55 AM57 °FCool.10 mph77%29.95 "HgN/A
6:25 AM59 °FCool.10 mph68%29.95 "HgN/A
5:55 AM59 °FClear.10 mph68%29.98 "HgN/A
5:25 AM59 °FCool.12 mph68%29.98 "HgN/A
4:55 AM59 °FClear.10 mph68%29.98 "HgN/A
4:25 AM59 °FCool.12 mph68%29.98 "HgN/A
3:55 AM61 °FCool.12 mph63%29.98 "HgN/A
3:25 AM61 °FClear.10 mph63%30.01 "HgN/A
2:55 AM61 °FCool.9 mph63%30.01 "HgN/A
2:25 AM63 °FClear.10 mph59%30.01 "HgN/A
1:55 AM63 °FClear.10 mph59%30.01 "HgN/A
1:25 AM63 °FClear.8 mph59%30.01 "HgN/A
12:55 AM63 °FClear.8 mph64%30.04 "HgN/A
12:25 AM64 °FClear.8 mph60%30.04 "HgN/A
11:55 PM
Sat, Sep 24
64 °FClear.8 mph60%30.04 "HgN/A
11:25 PM64 °FClear.6 mph60%30.07 "HgN/A
10:55 PM64 °FMild.8 mph60%30.07 "HgN/A
10:25 PM66 °FClear.7 mph56%30.07 "HgN/A
9:55 PM66 °FMild.8 mph56%30.07 "HgN/A
9:25 PM66 °FMild.8 mph56%30.07 "HgN/A
8:55 PM66 °FMild.7 mph56%30.07 "HgN/A
8:25 PM68 °FClear.8 mph53%30.07 "HgN/A
7:55 PM68 °FClear.9 mph53%30.07 "HgN/A
7:25 PM70 °FMild.10 mph50%30.07 "HgN/A
6:55 PM72 °FMild.12 mph47%30.07 "HgN/A
6:25 PM73 °FClear.13 mph44%30.07 "HgN/A
5:55 PM73 °FClear.14 mph44%30.09 "HgN/A
5:25 PM73 °FMild.12 mph47%30.09 "HgN/A
4:55 PM75 °FClear.13 mph44%30.09 "HgN/A
4:25 PM75 °FMild.15 mph41%30.12 "HgN/A
Weather by CustomWeather, © 2016

See weather overviewHow to use our weather pages